Regional Weather Roundup
Issued by NWS

Home | Current Version | Previous Version | Text Only | Print | Product List | Glossary Off
Versions: 1 2 3 4 5 6 7 8 9 10 11 12 13 14 15 16 17 18 19 20 21 22 23 24 25 26 27 28

000
ASUS45 KCYS 100210
RWRWY

WYOMING REGIONAL WEATHER ROUNDUP
NATIONAL WEATHER SERVICE CHEYENNE WY
700 PM MST FRI DEC 09 2016

NOTE:  "FAIR" INDICATES FEW OR NO CLOUDS BELOW 12,000 FEET
WITH NO SIGNIFICANT WEATHER AND/OR OBSTRUCTIONS TO VISIBILITY.

WYZ001-100300-
YELLOWSTONE NATIONAL PARK

CITY           SKY/WX    TMP DP  RH WIND       PRES   REMARKS
LK YELLOWSTONE   N/A     25  22  88 W3        29.94F
W YELLOWSTONE  NOT AVBL

$$
WYZ002>013-054>058-071-098>099-100300-
NORTHERN WYOMING

CITY           SKY/WX    TMP DP  RH WIND       PRES   REMARKS
JACKSON        LGT SNOW  28  28 100 SW10      29.98F WCI  19
CODY           CLOUDY    10   2  69 CALM      30.01F
GREYBULL       MOCLDY    13   2  61 W5        30.07F WCI   5
WORLAND        MOCLDY    10   5  80 VRB3      30.04F
SHERIDAN       CLOUDY    11   2  67 E7        30.11F WCI   0
BUFFALO        CLOUDY     6  -1  73 SE10      30.04F WCI  -9
GILLETTE       CLOUDY     6   2  83 E6        30.11F WCI  -4
HULETT         CLOUDY     3  -2  78 CALM      30.15F
NEWCASTLE      FAIR       9   0  66 S6        30.19S WCI  -1

$$
WYZ014>020-022>026-101>103-100300-
CENTRAL WYOMING

CITY           SKY/WX    TMP DP  RH WIND       PRES   REMARKS
BIG PINEY      CLOUDY    15  12  88 CALM      30.05F
PINEDALE       LGT SNOW  23  23 100 MISG      30.05S
DUBOIS         CLOUDY    30  23  74 NW14G21   29.91F WCI  20
LANDER         FAIR      13   6  74 CALM      29.95F
RIVERTON       FAIR      15   5  64 CALM      29.98F
CASPER         FAIR       6   0  76 E5        30.01F WCI  -3
DOUGLAS        MOCLDY    13   5  70 E8        30.06F WCI   2

$$
WYZ021-027>030-104>119-100300-
SOUTHERN WYOMING

CITY           SKY/WX    TMP DP  RH WIND       PRES   REMARKS
EVANSTON       CLOUDY    34  25  69 SW12      30.09F WCI  25
KEMMERER         N/A     32  30  93 W13       30.06F WCI  22
FORT BRIDGER   CLOUDY    37  29  74 SW10G18   30.10F WCI  30
ROCK SPRINGS   CLOUDY    34  27  75 W16       30.07F WCI  24
DIXON          CLOUDY    35  25  65 SW9G16    30.16S WCI  28
RAWLINS        CLOUDY    36  22  56 SW23G32   30.06F WCI  24
SARATOGA       CLOUDY    34  27  75 S13G23    30.09F WCI  25
LARAMIE        FAIR      33  23  66 SW24      30.04F WCI  20
CHEYENNE       MOCLDY    29  23  78 S16       30.08F WCI  17
TORRINGTON     CLOUDY    15   5  64 E10       30.15F WCI   2
PINE BLUFFS    FAIR      21  16  79 S9G16     30.12F WCI  11

$$




USA.gov is the U.S. government's official web portal to all federal, state and local government web resources and services.